sat.trackr.live / text

‹ back to catalog

STARLINK-34479

NORAD 64365 · 2025-126X

PAYLOAD ACTIVE UNKNOWN

§ Identity

Operator
Country
US
Launch date
2025-06-13
Launch site
AFWTR
Launch vehicle
Mass (kg)
RCS (m²)

Purposes: comms

External: N2YO · Heavens-Above · Gunter

§ Orbital elements

Epoch: 2026-05-24T21:49:07.855680Z

Period
96.11 min
Inclination
70.0005°
Eccentricity
0.0003893
Mean motion
14.98334667 rev/d
Perigee alt
569.3 km
Apogee alt
574.7 km
Semi-major
6,950.2 km
B*
2.0655e-4
RAAN
202.4825°
Arg perigee
267.5469°
Mean anomaly
92.5244°
Rev number
5,209

§ Raw data

STARLINK-344791 64365U 25126X   26144.90911870  .00002373  00000+0  20655-3 0  99972 64365  70.0005 202.4825 0003893 267.5469  92.5244 14.98334667 52096

JSON: /api/v1/satellites/64365 · /tle

For live sub-satellite position, see the globe view (requires WebGL).

§ Visibility from observer

Set your observer location to see the next 7 days of passes ≥ 10°. The values pass through the URL so the page stays shareable.

No JS? Fill the form by hand. The geolocation button needs JavaScript.